Minneapolis-St Paul International,Wold-Chamberlain Airport Minneapolis US
ICAO: KMSP
IATA: MSP
Category: Large
Scheduled Services: Yes

Elevation: 841 ft
TransAlt. 18000 ft.

Airport Communications:
APP:118.72
ATIS:120.8
CLNC DEL:133.2
DEP:132.975
GND:121.8
934 AW BASE OPS:28.267
133 AW COMD POST:31.12
934 AW COMD POST:25.21
PTD:28.267
PRINCETON RDO:122.3
TWR:123.675
UNICOM:122.95

KMSP Zoom In..

If Map Doesn't Load, Click Here

Runways:

(A) RW 04 length 11006 ft width 150 ft
ILS 109.30 / hdg 45

(B) RW 12L length 8200 ft width 150 ft
ILS 110.70 / hdg 121

(C) RW 12R length 10000 ft width 200 ft
ILS 110.30 / hdg 121

(D) RW 17 length 8000 ft width 150 ft
LOC 110.95 / hdg 170

(E) RW 22 length 11006 ft width 150 ft
LOC 110.95 / hdg 225

(F) RW 30L length 10000 ft width 200 ft
ILS 110.30 / hdg 301

(G) RW 30R length 8200 ft width 150 ft
ILS 110.70 / hdg 301

(H) RW 35 length 8000 ft width 150 ft
ILS 110.95 / hdg 350

Location; KMSP
Day. 26 / Time. 10.53 Zulu
* Altimeter: 30.06
* Temperature: 07° c. 44.6°f.
* Wind from: 000° Speed 00 kn.
Dewpoint: 04° c.
Visibility: 10 Statute Miles.
Clouds: Clear (automated report).

KMSP 261053Z 00000KT 10SM CLR 07/04 A3006 RMK AO2 SLP183 T00720039


Wind - Calm.

 
 
jpsmedia.com for Web Design worldairports.se 2018   terms of use